Skip Page Navigation
NASA JPL Caltech
NASA Logo - Jet Propulsion Laboratory + View the NASA Portal
+ Near-Earth Object (NEO) Program
Search JPL
JPL Home Earth Solar System Stars & Galaxies Technology
JPL Solar System Dynamics
BODIES ORBITS EPHEMERIDES TOOLS PHYSICAL DATA DISCOVERY FAQ SITE MAP
JPL Small-Body Database Browser
Search: [ help ]  
118214 Agnesediboemia (1996 AG1)
Classification: Main-belt Asteroid          SPK-ID: 2118214
Ephemeris | Orbit Diagram | Orbital Elements | Physical Parameters | Discovery Circumstances | Close-Approach Data ]

[ show orbit diagram ]
Orbital Elements at Epoch 2457000.5 (2014-Dec-09.0) TDB
Reference: JPL 8 (heliocentric ecliptic J2000)
 Element Value Uncertainty (1-sigma)   Units 
e .1960761733617564 8.2895e-08  
a 3.116105229357081 5.3794e-08 AU
q 2.505111240192186 2.5452e-07 AU
i 6.543963784194911 8.2369e-06 deg
node 85.09538419854697 7.4395e-05 deg
peri 296.6448061819019 7.852e-05 deg
M 231.7877995607457 2.7836e-05 deg
tp 2457716.055711659507
(2016-Nov-23.55571166)
0.00016863 JED
period 2009.169605660664
5.50
5.2027e-05
1.424e-07
d
yr
n .1791785018973663 4.6398e-09 deg/d
Q 3.727099218521976 6.4342e-08 AU
  Orbit Determination Parameters
   # obs. used (total)      305  
   data-arc span      6743 days (18.46 yr)  
   first obs. used      1996-01-12  
   last obs. used      2014-06-29  
   planetary ephem.      DE431  
   SB-pert. ephem.      SB431-BIG16  
   condition code      0  
   fit RMS      .55364  
   data source      ORB  
   producer      Otto Matic  
   solution date      2015-Jun-04 20:30:33  

Additional Information
 Earth MOID = 1.51687 AU 
 T_jup = 3.178 
[ show covariance matrix ]

Ephemeris | Orbit Diagram | Orbital Elements | Physical Parameters | Discovery Circumstances | Close-Approach Data ]

Physical Parameter Table
Parameter Symbol Value Units Sigma Reference Notes
absolute magnitude H 14.8 mag n/a MPO257550  

118214 Agnesediboemia           Discovered 1996 Jan. 12 by J. Ticha and M. Tichy at Klet.
Agnese di Boemia (1211-1282), princess Anežka of the Přemyslid family, devoted her life to charity and religious works. She was the founder of a hospital and two convents that were among the first Gothic buildings in Prague. She was canonized in 1989.
NOTE: some special characters may not display properly (any characters within {} are an attempt to place the proper accent above a character)
Reference: 20120703/MPCPages.arcLast Updated: 2012-07-09

[ show close-approach data ]
Alternate Designations
 1996 AG1 = 2000 RH54 
Ephemeris | Orbit Diagram | Orbital Elements | Physical Parameters | Discovery Circumstances | Close-Approach Data ]
ABOUT SSD CREDITS/AWARDS PRIVACY/COPYRIGHT GLOSSARY LINKS
FirstGov 2015-Aug-30 22:32 UT
(server date/time)  
NASA Home Page
Site Manager:   Ryan S. Park
Webmaster  Alan B. Chamberlin